Hourly Data Report for May 19, 2012

All times are specified in Local Standard Time (LST). Add 1 hour to adjust for Daylight Saving Time where and when it is observed.

LONDON A
ONTARIO

43°01'59.000" N
81°09'04.000" W
278.00 m
6144473
71623
YXU

Download Data

Hourly Data (May 2012)
Hourly Data Report for May 19, 2012
Temp Definition
°C
Dew Point Temp Definition
°C
Rel Hum Definition
%
Wind Dir Definition
10's deg

Wind Spd Definition
km/h
Visibility Definition
km
Stn Press Definition
kPa
Hmdx Definition


Wind Chill Definition


Weather Definition


TIME
00:00 Legend Double Dagger 11.4 3.5 58 8 6 10.0 98.72     LegendNANA
01:00 Legend Double Dagger 10.0 4.2 67 7 6 10.0 98.70     Clear
02:00 Legend Double Dagger 8.8 4.1 72 5 5 10.0 98.69     LegendNANA
03:00 Legend Double Dagger 9.9 4.3 68 7 5 10.0 98.73     LegendNANA
04:00 Legend Double Dagger 9.0 4.6 74 6 6 10.0 98.77     Clear
05:00 Legend Double Dagger 8.6 4.4 75 8 10 10.0 98.80     LegendNANA
06:00 Legend Double Dagger 10.4 5.4 71 8 9 10.0 98.84     LegendNANA
07:00 Legend Double Dagger 14.3 7.0 61 11 9 10.0 98.87     Mainly Clear
08:00 Legend Double Dagger 17.5 8.2 54 14 10 10.0 98.89     LegendNANA
09:00 Legend Double Dagger 21.4 9.5 46 15 11 10.0 98.89     LegendNANA
10:00 Legend Double Dagger 23.8 9.6 40 18 13 10.0 98.88 25   Mainly Clear
11:00 Legend Double Dagger 25.5 8.7 34 21 12 10.0 98.88 26   LegendNANA
12:00 Legend Double Dagger 26.5 9.2 33 17 14 10.0 98.90 27   LegendNANA
13:00 Legend Double Dagger 27.0 6.1 26 18 10 10.0 98.86 27   Mainly Clear
14:00 Legend Double Dagger 27.9 8.5 29 23 14 10.0 98.83 29   LegendNANA
15:00 Legend Double Dagger 27.9 9.5 31 18 8 10.0 98.79 29   LegendNANA
16:00 Legend Double Dagger 27.7 7.8 28 19 13 10.0 98.77 28   Mainly Clear
17:00 Legend Double Dagger 27.0 6.7 27 19 17 10.0 98.78 27   LegendNANA
18:00 Legend Double Dagger 26.2 7.0 29 17 12 10.0 98.74 26   LegendNANA
19:00 Legend Double Dagger 24.4 5.9 30 18 12 10.0 98.75     Mainly Clear
20:00 Legend Double Dagger 21.7 6.6 37 11 7 10.0 98.79     LegendNANA
21:00 Legend Double Dagger 18.8 6.4 44 11 5 10.0 98.82     LegendNANA
22:00 Legend Double Dagger 14.7 6.8 59   0 10.0 98.83     Mainly Clear
23:00 Legend Double Dagger 15.2 7.6 60   0 10.0 98.84     LegendNANA

Notes on Data Quality.

Legend

  • E = Estimated
  • M = Missing
  • NA = Not Available
  • ‡ = Partner data that is not subject to review by the National Climate Archives
Date modified: